RUK99B EGCC-EIKY

Flight info

Callsign RUK99B
Flight time 0h 52m
Altitude 38000
Route ASMIM L975 WAL L10 PENIL M144 BAGSO DCT KER
Aircraft B738/M-SDE1E2E3FGIJ1LRWYZ/SB1

Departure

Time 2026-04-20 21:21
Airport Manchester Airport (EGCC)

Arrival

Time 2026-04-20 22:14
Airport Kerry Airport (EIKY)
Time Latitude Longitude Altitude Speed Heading
2026-04-20 20:46 53.36010 -2.26930 254 ft 0 kts 314°
2026-04-20 21:06 53.36008 -2.26927 254 ft 3 kts 314°
2026-04-20 21:07 53.35990 -2.26896 254 ft 3 kts 314°
2026-04-20 21:07 53.35978 -2.26869 254 ft 4 kts 268°
2026-04-20 21:07 53.35987 -2.26830 254 ft 4 kts 233°
2026-04-20 21:07 53.36000 -2.26803 254 ft 0 kts 232°
2026-04-20 21:12 53.35995 -2.26813 254 ft 6 kts 232°
2026-04-20 21:12 53.35937 -2.26836 254 ft 10 kts 169°
2026-04-20 21:12 53.35876 -2.26886 254 ft 10 kts 229°
2026-04-20 21:13 53.35830 -2.26995 254 ft 15 kts 239°
2026-04-20 21:13 53.35788 -2.27116 254 ft 10 kts 240°
2026-04-20 21:13 53.35788 -2.27124 254 ft 2 kts 270°
2026-04-20 21:13 53.35816 -2.27204 254 ft 15 kts 282°
2026-04-20 21:14 53.35800 -2.27294 254 ft 9 kts 232°
2026-04-20 21:14 53.35755 -2.27391 254 ft 11 kts 232°
2026-04-20 21:14 53.35707 -2.27489 254 ft 11 kts 230°
2026-04-20 21:14 53.35686 -2.27598 255 ft 10 kts 292°
2026-04-20 21:15 53.35747 -2.27654 254 ft 10 kts 343°
2026-04-20 21:15 53.35800 -2.27715 254 ft 4 kts 309°
2026-04-20 21:15 53.35817 -2.27746 254 ft 0 kts 312°
2026-04-20 21:15 53.35824 -2.27759 254 ft 0 kts 312°
2026-04-20 21:16 53.35848 -2.27804 254 ft 13 kts 311°
2026-04-20 21:16 53.35856 -2.27819 254 ft 0 kts 311°
2026-04-20 21:16 53.35856 -2.27823 254 ft 2 kts 296°
2026-04-20 21:16 53.35850 -2.27841 254 ft 4 kts 226°
2026-04-20 21:17 53.35773 -2.27869 254 ft 20 kts 188°
2026-04-20 21:17 53.35616 -2.27922 248 ft 18 kts 221°
2026-04-20 21:17 53.35520 -2.28095 243 ft 23 kts 219°
2026-04-20 21:17 53.35371 -2.28170 239 ft 19 kts 186°
2026-04-20 21:18 53.35262 -2.28189 239 ft 7 kts 186°
2026-04-20 21:18 53.35233 -2.28194 235 ft 0 kts 186°
2026-04-20 21:19 53.35230 -2.28195 235 ft 3 kts 186°
2026-04-20 21:19 53.35157 -2.28204 233 ft 17 kts 177°
2026-04-20 21:19 53.35082 -2.28112 230 ft 3 kts 86°
2026-04-20 21:20 53.35087 -2.28097 230 ft 0 kts 57°
2026-04-20 21:20 53.35119 -2.28029 231 ft 34 kts 51°
2026-04-20 21:21 53.35421 -2.27403 252 ft 104 kts 51°
2026-04-20 21:21 53.36003 -2.26199 333 ft 157 kts 52°
2026-04-20 21:21 53.36677 -2.24737 1157 ft 154 kts 53°
2026-04-20 21:21 53.37367 -2.23291 1834 ft 166 kts 52°
2026-04-20 21:22 53.38196 -2.21686 2152 ft 197 kts 42°
2026-04-20 21:22 53.39512 -2.20776 2395 ft 224 kts
2026-04-20 21:22 53.41048 -2.21571 2892 ft 242 kts 326°
2026-04-20 21:22 53.42077 -2.23954 3251 ft 266 kts 293°
2026-04-20 21:23 53.42749 -2.26911 3965 ft 273 kts 294°
2026-04-20 21:23 53.43498 -2.29826 4915 ft 272 kts 296°
2026-04-20 21:23 53.44295 -2.32681 5889 ft 275 kts 297°
2026-04-20 21:23 53.45131 -2.35623 6878 ft 277 kts 294°
2026-04-20 21:24 53.45674 -2.38688 7779 ft 282 kts 284°
2026-04-20 21:24 53.46060 -2.41948 8658 ft 287 kts 282°
2026-04-20 21:24 53.46432 -2.45257 9521 ft 291 kts 282°
2026-04-20 21:24 53.46821 -2.48596 10440 ft 292 kts 283°
2026-04-20 21:25 53.47239 -2.52005 11014 ft 308 kts 283°
2026-04-20 21:25 53.47700 -2.55628 11290 ft 331 kts 283°
2026-04-20 21:25 53.48194 -2.59472 11967 ft 340 kts 283°
2026-04-20 21:25 53.48696 -2.63364 12846 ft 341 kts 283°
2026-04-20 21:26 53.49193 -2.67214 13676 ft 344 kts 283°
2026-04-20 21:26 53.49701 -2.71141 14447 ft 347 kts 283°
2026-04-20 21:26 53.50218 -2.75142 15224 ft 350 kts 283°
2026-04-20 21:26 53.50736 -2.79167 15997 ft 353 kts 283°
2026-04-20 21:27 53.51252 -2.83180 16735 ft 356 kts 282°
2026-04-20 21:27 53.51774 -2.87257 17452 ft 359 kts 282°
2026-04-20 21:27 53.52300 -2.91389 18170 ft 362 kts 282°
2026-04-20 21:27 53.52826 -2.95517 18865 ft 364 kts 282°
2026-04-20 21:28 53.53358 -2.99705 19567 ft 366 kts 282°
2026-04-20 21:28 53.53894 -3.03941 20212 ft 370 kts 282°
2026-04-20 21:28 53.54428 -3.08176 20882 ft 372 kts 282°
2026-04-20 21:28 53.54889 -3.12467 21533 ft 374 kts 278°
2026-04-20 21:29 53.55190 -3.16766 22137 ft 377 kts 276°
2026-04-20 21:29 53.55441 -3.21172 22729 ft 379 kts 276°
2026-04-20 21:29 53.55686 -3.25599 23266 ft 382 kts 276°
2026-04-20 21:29 53.55941 -3.30048 23825 ft 384 kts 276°
2026-04-20 21:30 53.56209 -3.34533 24386 ft 386 kts 276°
2026-04-20 21:30 53.56487 -3.39048 24886 ft 389 kts 277°
2026-04-20 21:30 53.56768 -3.43575 25397 ft 391 kts 277°
2026-04-20 21:30 53.57053 -3.48142 25893 ft 393 kts 277°
2026-04-20 21:31 53.57338 -3.52731 26352 ft 396 kts 276°
2026-04-20 21:31 53.57624 -3.57359 26782 ft 399 kts 276°
2026-04-20 21:31 53.57909 -3.62015 27215 ft 401 kts 276°
2026-04-20 21:31 53.58194 -3.66706 27638 ft 403 kts 276°
2026-04-20 21:32 53.58480 -3.71422 28047 ft 406 kts 276°
2026-04-20 21:32 53.58766 -3.76145 28424 ft 408 kts 276°
2026-04-20 21:32 53.59053 -3.80906 28812 ft 411 kts 276°
2026-04-20 21:32 53.59339 -3.85670 29171 ft 413 kts 276°
2026-04-20 21:33 53.59626 -3.90482 29516 ft 416 kts 276°
2026-04-20 21:33 53.59914 -3.95353 29874 ft 417 kts 276°
2026-04-20 21:33 53.60199 -4.00225 30233 ft 419 kts 276°
2026-04-20 21:33 53.60485 -4.05126 30555 ft 421 kts 276°
2026-04-20 21:34 53.60769 -4.10045 30821 ft 424 kts 276°
2026-04-20 21:34 53.61054 -4.15019 31087 ft 427 kts 276°
2026-04-20 21:34 53.61338 -4.20015 31397 ft 429 kts 276°
2026-04-20 21:34 53.61621 -4.25000 31819 ft 427 kts 276°
2026-04-20 21:35 53.61900 -4.29975 32232 ft 426 kts 276°
2026-04-20 21:35 53.62177 -4.34945 32550 ft 427 kts 276°
2026-04-20 21:35 53.62450 -4.39868 32859 ft 427 kts 276°
2026-04-20 21:35 53.62722 -4.44844 33232 ft 426 kts 276°
2026-04-20 21:36 53.62994 -4.49859 33619 ft 425 kts 276°
2026-04-20 21:36 53.63259 -4.54769 33902 ft 426 kts 276°
2026-04-20 21:36 53.63525 -4.59747 34192 ft 426 kts 276°
2026-04-20 21:36 53.63789 -4.64719 34518 ft 425 kts 276°
2026-04-20 21:37 53.64052 -4.69692 34814 ft 426 kts 276°
2026-04-20 21:37 53.64313 -4.74662 35073 ft 426 kts 276°
2026-04-20 21:37 53.64572 -4.79639 35324 ft 427 kts 276°
2026-04-20 21:37 53.64829 -4.84629 35615 ft 427 kts 276°
2026-04-20 21:38 53.65080 -4.89560 35877 ft 428 kts 276°
2026-04-20 21:38 53.65336 -4.94634 36104 ft 429 kts 276°
2026-04-20 21:38 53.65587 -4.99650 36336 ft 430 kts 276°
2026-04-20 21:38 53.65835 -5.04606 36547 ft 431 kts 276°
2026-04-20 21:39 53.66085 -5.09653 36813 ft 429 kts 276°
2026-04-20 21:39 53.66327 -5.14606 37421 ft 420 kts 276°
2026-04-20 21:39 53.66565 -5.19518 37645 ft 421 kts 276°
2026-04-20 21:40 53.67041 -5.29448 37780 ft 428 kts 275°
2026-04-20 21:40 53.67279 -5.34473 37921 ft 430 kts 275°
2026-04-20 21:40 53.67515 -5.39504 38140 ft 430 kts 275°
2026-04-20 21:40 53.67747 -5.44551 38296 ft 431 kts 274°
2026-04-20 21:41 53.67717 -5.49636 38302 ft 436 kts 265°
2026-04-20 21:41 53.66119 -5.59435 38335 ft 439 kts 244°
2026-04-20 21:42 53.62931 -5.68221 38330 ft 439 kts 238°
2026-04-20 21:42 53.59558 -5.76738 38324 ft 440 kts 238°
2026-04-20 21:43 53.56275 -5.85412 38323 ft 439 kts 239°
2026-04-20 21:43 53.53073 -5.94169 38323 ft 439 kts 240°
2026-04-20 21:44 53.49894 -6.02945 38320 ft 439 kts 240°
2026-04-20 21:44 53.48293 -6.07360 37860 ft 446 kts 240°
2026-04-20 21:44 53.46704 -6.11730 37548 ft 440 kts 240°
2026-04-20 21:44 53.45117 -6.16086 37106 ft 436 kts 240°
2026-04-20 21:45 53.43538 -6.20404 36706 ft 432 kts 240°
2026-04-20 21:45 53.41973 -6.24677 36309 ft 428 kts 240°
2026-04-20 21:45 53.40422 -6.28906 35862 ft 424 kts 240°
2026-04-20 21:45 53.38874 -6.33120 35461 ft 420 kts 241°
2026-04-20 21:46 53.37347 -6.37268 35048 ft 417 kts 241°
2026-04-20 21:46 53.35826 -6.41396 34641 ft 413 kts 241°
2026-04-20 21:46 53.34341 -6.45419 34241 ft 410 kts 241°
2026-04-20 21:46 53.32830 -6.49507 33824 ft 406 kts 241°
2026-04-20 21:47 53.31352 -6.53498 33420 ft 402 kts 242°
2026-04-20 21:47 53.29881 -6.57468 33018 ft 398 kts 242°
2026-04-20 21:47 53.28428 -6.61377 32621 ft 395 kts 242°
2026-04-20 21:47 53.26982 -6.65258 32231 ft 391 kts 242°
2026-04-20 21:48 53.25555 -6.69088 31844 ft 387 kts 242°
2026-04-20 21:48 53.24136 -6.72889 31458 ft 384 kts 243°
2026-04-20 21:48 53.22744 -6.76611 31081 ft 380 kts 243°
2026-04-20 21:48 53.21351 -6.80331 30702 ft 376 kts 243°
2026-04-20 21:49 53.19973 -6.84009 30325 ft 372 kts 243°
2026-04-20 21:49 53.18604 -6.87657 29953 ft 368 kts 243°
2026-04-20 21:49 53.17245 -6.91269 29555 ft 365 kts 243°
2026-04-20 21:49 53.15901 -6.94839 29160 ft 361 kts 243°
2026-04-20 21:50 53.14571 -6.98366 28760 ft 358 kts 243°
2026-04-20 21:50 53.13254 -7.01852 28379 ft 355 kts 243°
2026-04-20 21:50 53.11945 -7.05314 27986 ft 352 kts 243°
2026-04-20 21:50 53.10645 -7.08749 27599 ft 349 kts 243°
2026-04-20 21:51 53.09372 -7.12107 27211 ft 346 kts 243°
2026-04-20 21:51 53.08092 -7.15481 26824 ft 343 kts 242°
2026-04-20 21:51 53.06821 -7.18825 26438 ft 341 kts 242°
2026-04-20 21:51 53.05611 -7.22003 26073 ft 339 kts 242°
2026-04-20 21:52 53.04357 -7.25294 25691 ft 336 kts 242°
2026-04-20 21:52 53.03102 -7.28581 25310 ft 335 kts 242°
2026-04-20 21:52 53.01860 -7.31833 24930 ft 333 kts 242°
2026-04-20 21:52 53.00623 -7.35069 24552 ft 331 kts 242°
2026-04-20 21:53 52.99394 -7.38279 24186 ft 328 kts 242°
2026-04-20 21:53 52.98170 -7.41470 23816 ft 326 kts 242°
2026-04-20 21:53 52.96950 -7.44647 23444 ft 325 kts 242°
2026-04-20 21:53 52.95738 -7.47798 23075 ft 323 kts 241°
2026-04-20 21:54 52.94536 -7.50922 22713 ft 320 kts 241°
2026-04-20 21:54 52.93338 -7.54029 22353 ft 319 kts 241°
2026-04-20 21:54 52.92147 -7.57116 21999 ft 317 kts 241°
2026-04-20 21:54 52.90962 -7.60183 21647 ft 315 kts 241°
2026-04-20 21:55 52.89782 -7.63231 21296 ft 313 kts 241°
2026-04-20 21:55 52.88626 -7.66215 20952 ft 312 kts 241°
2026-04-20 21:55 52.87456 -7.69233 20606 ft 310 kts 241°
2026-04-20 21:55 52.86295 -7.72225 20261 ft 308 kts 240°
2026-04-20 21:56 52.85139 -7.75197 19921 ft 306 kts 240°
2026-04-20 21:56 52.83987 -7.78159 19578 ft 305 kts 240°
2026-04-20 21:56 52.82841 -7.81098 19245 ft 303 kts 240°
2026-04-20 21:56 52.81701 -7.84020 18913 ft 302 kts 240°
2026-04-20 21:57 52.80565 -7.86932 18578 ft 300 kts 240°
2026-04-20 21:57 52.79434 -7.89822 18246 ft 299 kts 240°
2026-04-20 21:57 52.78308 -7.92697 17914 ft 297 kts 240°
2026-04-20 21:57 52.77186 -7.95561 17593 ft 296 kts 240°
2026-04-20 21:58 52.76071 -7.98405 17272 ft 294 kts 240°
2026-04-20 21:58 52.74960 -8.01235 16939 ft 293 kts 239°
2026-04-20 21:58 52.73852 -8.04052 16632 ft 292 kts 240°
2026-04-20 21:58 52.72763 -8.06818 16318 ft 290 kts 239°
2026-04-20 21:59 52.71660 -8.09617 15995 ft 290 kts 239°
2026-04-20 21:59 52.70566 -8.12389 15681 ft 288 kts 239°
2026-04-20 21:59 52.69472 -8.15160 15365 ft 287 kts 239°
2026-04-20 21:59 52.68383 -8.17915 15048 ft 286 kts 239°
2026-04-20 22:00 52.67298 -8.20657 14739 ft 285 kts 239°
2026-04-20 22:00 52.66217 -8.23385 14433 ft 283 kts 238°
2026-04-20 22:00 52.65142 -8.26098 14122 ft 282 kts 238°
2026-04-20 22:00 52.64071 -8.28797 13816 ft 281 kts 238°
2026-04-20 22:01 52.63362 -8.30582 13617 ft 281 kts 238°
2026-04-20 22:01 52.62296 -8.33261 13316 ft 279 kts 238°
2026-04-20 22:01 52.61231 -8.35937 13009 ft 278 kts 237°
2026-04-20 22:01 52.60173 -8.38588 12714 ft 277 kts 237°
2026-04-20 22:02 52.59116 -8.41237 12423 ft 276 kts 237°
2026-04-20 22:02 52.57721 -8.44728 12028 ft 275 kts 237°
2026-04-20 22:02 52.57011 -8.46504 11836 ft 274 kts 237°
2026-04-20 22:02 52.56004 -8.49025 11545 ft 273 kts 237°
2026-04-20 22:03 52.54957 -8.51640 11259 ft 275 kts 237°
2026-04-20 22:03 52.53904 -8.54271 10956 ft 275 kts 236°
2026-04-20 22:03 52.52854 -8.56879 10664 ft 274 kts 236°
2026-04-20 22:03 52.51804 -8.59491 10377 ft 272 kts 236°
2026-04-20 22:04 52.50762 -8.62083 10088 ft 272 kts 236°
2026-04-20 22:04 52.49719 -8.64671 9799 ft 271 kts 235°
2026-04-20 22:04 52.48677 -8.67251 9505 ft 270 kts 235°
2026-04-20 22:04 52.47638 -8.69827 9214 ft 270 kts 234°
2026-04-20 22:05 52.46604 -8.72387 8929 ft 270 kts 234°
2026-04-20 22:05 52.45566 -8.74957 8647 ft 270 kts 234°
2026-04-20 22:05 52.44532 -8.77515 8354 ft 269 kts 234°
2026-04-20 22:05 52.43508 -8.80045 8068 ft 268 kts 234°
2026-04-20 22:06 52.42478 -8.82592 7771 ft 268 kts 234°
2026-04-20 22:06 52.41442 -8.85117 7498 ft 266 kts 234°
2026-04-20 22:06 52.40415 -8.87648 7219 ft 266 kts 234°
2026-04-20 22:06 52.39389 -8.90172 6935 ft 265 kts 234°
2026-04-20 22:07 52.38369 -8.92683 6649 ft 264 kts 234°
2026-04-20 22:07 52.37349 -8.95189 6361 ft 264 kts 234°
2026-04-20 22:07 52.36333 -8.97679 6078 ft 262 kts 234°
2026-04-20 22:07 52.35323 -9.00152 5799 ft 262 kts 234°
2026-04-20 22:08 52.34301 -9.02654 5454 ft 264 kts 234°
2026-04-20 22:08 52.33284 -9.05139 5289 ft 258 kts 233°
2026-04-20 22:08 52.32297 -9.07553 5153 ft 253 kts 233°
2026-04-20 22:08 52.31345 -9.09875 5028 ft 246 kts 233°
2026-04-20 22:09 52.30409 -9.12161 4921 ft 241 kts 234°
2026-04-20 22:09 52.29483 -9.14393 4781 ft 236 kts 233°
2026-04-20 22:09 52.28570 -9.16603 4556 ft 234 kts 233°
2026-04-20 22:09 52.27665 -9.18814 4314 ft 232 kts 233°
2026-04-20 22:10 52.26766 -9.21005 4090 ft 232 kts 233°
2026-04-20 22:10 52.25870 -9.23186 3860 ft 231 kts 233°
2026-04-20 22:10 52.24976 -9.25360 3624 ft 231 kts 233°
2026-04-20 22:10 52.24088 -9.27508 3388 ft 231 kts 233°
2026-04-20 22:11 52.23192 -9.29677 3157 ft 229 kts 233°
2026-04-20 22:11 52.22378 -9.31900 2905 ft 230 kts 244°
2026-04-20 22:11 52.21830 -9.34373 2590 ft 233 kts 250°
2026-04-20 22:11 52.21330 -9.36866 2211 ft 227 kts 250°
2026-04-20 22:12 52.20831 -9.39252 1857 ft 217 kts 250°
2026-04-20 22:12 52.20354 -9.41528 1540 ft 207 kts 250°
2026-04-20 22:12 52.19901 -9.43695 1228 ft 197 kts 250°
2026-04-20 22:12 52.19472 -9.45750 939 ft 184 kts 250°
2026-04-20 22:13 52.19082 -9.47611 653 ft 165 kts 250°
2026-04-20 22:13 52.18733 -9.49287 451 ft 146 kts 250°
2026-04-20 22:13 52.18416 -9.50859 180 ft 140 kts 250°
2026-04-20 22:13 52.18131 -9.52238 90 ft 101 kts 251°
2026-04-20 22:14 52.18016 -9.52769 93 ft 14 kts 250°
2026-04-20 22:14 52.17968 -9.52970 91 ft 22 kts 249°
2026-04-20 22:14 52.17921 -9.53201 89 ft 21 kts 252°
2026-04-20 22:14 52.17874 -9.53425 91 ft 21 kts 250°
2026-04-20 22:15 52.17886 -9.53555 93 ft 12 kts 329°
2026-04-20 22:15 52.17969 -9.53609 90 ft 13 kts 348°
2026-04-20 22:15 52.18010 -9.53615 90 ft 6 kts 10°
2026-04-20 22:15 52.18071 -9.53578 91 ft 13 kts 14°
2026-04-20 22:16 52.18102 -9.53579 90 ft 0 kts 353°
2026-04-20 22:16 52.18110 -9.53582 90 ft 0 kts 347°